CAPE
2090 1928 1878 1929 2137 2084 2058 2038 2058 2025 1932 1792 1618 1406 1239 1137 972 827 871 870 652 871 1411 1607 1785 1843 1861 1876 1823 1770 1714 1653 1609 1811 1872 1874 1838 1769 1745 1718 1743 1796 1726 1622 1500 1335 1234 1228 1298 1459 2027 1871 1875 1907 1769 1630 1496 1439 1498 1590 1223 1130 1208 1144 1219 1307 1442 1698 1554 1380 1022 1003 793 705 657 498 301 174 95 46 19 20 15 8 4
2198 2361 2200 2224 2441 2300 2234 2116 2072 2072 2011 1871 1635 1342 1216 1167 1126 996 916 932 820 580 778 1037 1060 1073 1074 1142 1323 1406 1468 1531 1546 1654 1736 1739 1749 1726 1697 1646 1650 1708 1680 1568 1481 1414 1313 1237 1390 2220 2532 2292 2057 1863 1758 1671 1604 1468 1600 1781 1652 1290 1258 1328 1264 1464 1372 1381 1524 1233 1089 975 723 629 121 457 291 157 114 39 3 17 11 10 12
2224 2280 2341 2490 2517 2480 2352 2261 2209 2116 1886 1616 1444 1367 1234 1149 1129 1125 1056 956 881 792 565 394 602 714 745 741 908 1175 1383 1448 1456 1549 1652 1703 1672 1644 1647 1619 1613 1642 1591 1462 1319 1301 1394 1448 1432 1776 2586 2183 2078 1960 1858 1801 1708 1580 1562 1705 2023 1754 1377 1320 1320 1381 1253 1266 1331 1204 1099 971 886 716 562 485 341 77 113 60 4 5 8 8 9
2633 2314 2302 2578 2584 2552 2528 2448 2302 2000 1642 1528 1522 1480 1350 1170 1072 1053 1037 978 893 799 726 560 358 168 501 598 745 861 1018 1256 1375 1472 1536 1562 1585 1539 1522 1569 1589 1596 1527 1432 1335 1346 1471 1659 1828 2260 2654 2314 2140 2054 1960 1903 1794 1679 1517 1921 2162 2188 1529 1279 1386 1416 1288 1277 1267 1330 1097 1014 879 630 484 414 307 132 49 49 15 9 10 9 10
2768 2724 2726 2717 2679 2588 2537 2405 2223 1936 1656 1576 1567 1642 1580 1412 1306 1030 925 871 843 803 754 629 562 288 280 520 700 832 907 940 995 1050 1113 1198 1300 1377 1424 1446 1491 1510 1461 1378 1922 1637 1761 1861 1934 2364 2419 2283 2151 2049 1976 1915 1852 1734 1562 1820 2166 2197 1790 1477 1563 1539 1460 1334 1300 1134 998 840 837 665 518 373 159 75 6 10 9 10 12 12 11
2704 2710 2721 2728 2654 2517 2328 2137 1955 1811 1671 1632 1644 1764 1739 1516 1294 1114 1014 953 916 867 764 628 570 552 482 281 702 827 874 905 916 870 909 946 1028 1170 1291 1347 1359 1387 1349 1262 1248 1811 1858 1990 1926 2214 2298 2202 2136 2058 1937 1825 1697 1548 1424 1454 1860 2240 2070 1842 1769 1672 1494 1394 1261 1063 1016 817 706 606 523 314 233 131 12 0 0 2 6 6 7
2342 2422 2479 2526 2394 2234 2144 2007 1886 1865 1765 1705 1719 1763 1776 1708 1571 1426 1318 1224 1102 946 745 647 604 542 488 330 325 679 912 950 952 966 992 1005 1050 1072 1149 1226 1260 1229 1196 1138 1086 1486 1818 1906 2085 2314 2354 2317 2272 2194 2099 1973 1760 1564 1384 1337 1324 1672 1840 1679 1614 1552 1431 1378 1311 1242 1085 835 767 597 434 368 316 155 98 36 0 0 2 6 4
2037 2151 2295 2214 1754 1960 1949 1860 1747 1694 1714 1705 1663 1674 1685 1649 1550 1396 1343 1249 887 1018 920 762 591 531 555 485 438 400 604 928 1013 1044 1032 984 925 931 1048 1148 1158 1140 1091 1073 1103 1302 1708 1887 2047 2294 2382 2355 2299 2263 2170 2056 1865 1627 1552 1473 1408 1400 1383 1461 1447 1376 1383 1349 1369 1251 1020 901 655 554 400 268 228 162 98 0 0 0 0 0 2
1494 1398 1685 1982 1805 1684 1578 1407 1328 1521 1668 1522 1569 1537 1532 1482 1378 1323 1270 1119 872 778 758 756 768 677 624 534 558 571 506 446 503 497 672 546 680 670 597 995 1103 1105 1071 1025 1062 1495 1946 2124 2206 2254 2534 3036 3125 2712 2339 2216 2056 1766 1652 1566 1482 1438 1452 1374 1532 1416 1329 1338 1311 1182 1056 856 658 577 359 285 235 261 4 0 0 0 0 2 0
1605 1616 2214 2516 2590 2514 2327 2266 1997 1656 1420 1314 1355 1331 1223 1132 1134 1104 1182 1179 1141 1044 870 663 732 725 704 667 568 562 561 582 1048 1164 1058 748 587 471 631 639 839 1002 1020 944 912 1138 1922 2315 2551 3487 3722 4119 4326 4061 3567 3020 2371 1868 1776 1648 1536 1411 1294 1141 1216 1413 1354 1271 1215 1080 988 928 726 609 495 326 223 171 119 32 5 0 0 1 0
2180 2622 2499 2573 2673 2660 2722 2705 2601 2222 1819 1655 1544 1545 1450 1325 1129 985 911 715 672 749 730 650 716 712 670 684 678 617 536 609 1281 1353 1023 1306 1251 898 824 758 700 822 1002 1081 1045 1127 1460 1962 2232 3308 4207 4569 4424 4599 4399 3790 3120 2607 2186 1920 1802 1491 1152 1035 1014 1182 1239 1204 1140 1065 992 862 766 615 534 474 327 255 165 24 0 3 0 0 0
2901 2851 2783 2704 2660 2753 2638 2468 2331 2291 2083 1857 1602 1538 1523 1414 1162 1026 986 916 913 858 649 619 639 639 534 547 591 593 567 566 616 681 950 1003 1619 1404 919 840 835 755 695 771 891 1124 1384 1651 2013 2262 2980 3242 3344 3780 4519 4358 3634 3127 2895 2445 2113 1846 1542 1066 1010 998 1119 1189 1203 1172 1027 874 770 654 499 397 388 310 191 97 59 0 0 0 0
3214 3092 2970 2817 2724 2628 2600 2357 2134 1910 1604 1371 1195 1104 1009 1191 1133 1111 1127 1189 1237 1259 1084 925 924 889 752 602 546 564 527 503 506 491 454 359 379 1400 1399 1170 973 853 905 853 822 965 1198 1447 1714 2176 2502 3679 3824 3157 3410 4264 4267 3558 3204 2776 2320 1991 1801 1572 1322 1160 1206 1167 1192 1157 1054 965 879 804 677 561 435 335 192 105 70 27 0 0 0
3287 3132 3066 3110 3103 2983 2740 2473 2249 1750 1302 1306 1470 1552 1336 1104 916 908 962 1224 1540 1811 1845 1924 1884 2087 2203 1969 1591 1290 1153 957 558 475 422 401 381 363 730 1098 1196 1130 1001 863 1034 1199 1232 1307 1452 1834 2296 2854 3344 3231 3105 3431 3964 3671 3140 2872 2234 2278 1997 1786 1554 1572 1601 1326 1094 1098 1060 1022 963 842 718 659 569 411 261 160 65 6 0 0 0
3296 3196 3198 3217 3270 3305 3192 3097 2941 2419 2351 2130 2047 1885 1987 1829 1660 1477 1234 1104 1285 1908 2018 1934 2220 2210 2283 2444 2461 2340 2228 2054 1660 1382 1125 844 673 429 387 202 528 878 1119 1280 1307 1354 1393 1404 1428 1569 2020 2440 2916 3168 3074 3085 3345 3511 3292 2833 2248 1915 1812 1775 1736 1716 1576 1400 1305 1167 1114 1020 931 829 758 626 557 456 346 270 172 0 0 4 5
3249 3093 2945 2773 2828 2894 2766 2666 2634 2591 2421 2240 2121 2043 1860 1641 1736 1738 1508 1436 1382 1600 1863 1994 2217 2198 2268 2242 2338 2333 2251 2134 2074 2135 2087 1951 1701 1366 1115 871 677 530 547 968 1399 1696 1752 1663 1603 1518 1523 1714 2452 2969 3008 2857 2856 3034 3129 2870 2520 2234 2088 2040 2038 1940 1694 1451 1312 1277 1189 1111 1054 1004 851 760 646 544 451 339 137 31 13 0 10
3018 2971 2866 2642 2486 2484 2437 2234 2133 2173 2098 1948 2067 1831 1288 1300 1624 1842 1782 1646 1582 1737 1800 1984 2089 2177 2247 2165 2061 1985 1985 1917 1836 1949 2154 2304 2272 1843 1576 1193 853 702 580 605 825 1128 1344 1645 1857 1687 1595 1484 1460 1877 2209 2345 2522 2574 2650 2660 2589 2339 2279 2328 2261 2154 1949 1730 1566 1420 1313 1181 1100 1020 848 806 737 588 564 384 216 80 3 0 4
2980 2803 2703 2677 2706 2769 2528 2325 2261 2174 2127 2127 2224 2234 2206 1971 1805 1877 1543 1886 1865 1968 1899 1905 2106 2170 2160 2068 1997 1896 1846 1829 1810 1837 2087 2173 2103 2043 1574 1256 1258 951 781 717 1048 1173 1631 2140 2114 1803 1786 1650 1390 1224 1548 2392 2210 2064 1862 1954 2202 2304 2230 2199 2223 2245 2192 2044 1904 1793 1614 1347 1194 1152 1086 893 729 634 598 521 214 76 32 0 1
3016 2772 2715 2736 2884 2693 2242 2065 2046 2012 1901 1868 1862 1830 1698 1507 1358 1411 1610 1722 1765 1743 1733 1742 1730 1683 1811 1806 1716 1876 1840 1894 1958 2015 2125 2163 2138 2083 1918 1794 1558 1675 1542 1629 1682 1709 1471 1876 2366 2276 2038 1827 1527 1241 1313 2012 2197 1902 1621 1516 1772 1890 1927 1961 2130 2282 2231 2084 1935 1777 1624 1363 1324 1061 723 804 708 758 721 510 238 105 48 30 23
2878 2819 2942 3006 2797 2515 2276 2028 1834 1811 1778 1703 1623 1537 1399 1397 1544 1658 1674 1655 1581 1639 1637 1616 1552 1612 1604 1571 1546 1455 1394 1366 1394 1450 1393 1456 1547 1639 1650 1608 1542 1760 1923 1872 1791 1767 1806 1796 1706 2140 2217 2170 2106 1991 1706 1825 2239 2250 2076 1710 1664 1701 1737 1810 1899 1918 1942 1890 1809 1608 1468 1368 1322 1244 1048 928 809 757 782 458 287 103 85 17 25
2802 2923 2946 2686 2504 2432 2210 2048 1825 1681 1580 1512 1446 1401 1313 1298 1375 1712 1806 1842 1839 1797 1777 1738 1691 1658 1610 1553 1501 1459 1416 1398 1380 1395 1465 1618 1746 1719 1695 1598 1574 1605 1599 1546 1487 1461 1439 1438 1500 1589 1664 1798 1920 2076 2132 1938 1914 2192 2341 2091 1832 1697 1669 1708 1761 1727 1629 1565 1500 1359 1235 1162 1121 1111 1011 804 518 489 407 445 325 218 238 97 7
2226 2239 2072 1986 1937 1860 1733 1687 1624 1546 1448 1318 1190 1013 938 888 849 884 970 1056 1060 1070 1146 1328 1473 1533 1549 1532 1480 1468 1476 1613 1575 1570 1508 1450 1476 1513 1518 1489 1412 1347 1291 1272 1237 1182 1198 1198 1235 1297 1322 1306 1254 1380 1657 1830 1764 1524 1743 1975 2080 1874 1728 1726 1609 1475 1336 1306 1348 1335 1246 1136 1120 1029 835 773 697 818 560 542 428 352 240 112 18
2074 2010 1964 1898 1777 1649 1472 1698 1474 1178 1070 878 808 693 582 544 608 606 579 577 583 606 594 598 637 664 714 786 981 1212 1366 1339 1247 1260 1304 1337 1387 1475 1397 1333 1269 1178 1120 1057 1030 1032 1053 1081 1147 1235 1296 1364 1319 1245 1138 1146 1342 1572 1596 1874 2017 1729 1654 1742 1806 1556 1504 1335 1275 1182 1102 1018 968 954 833 773 737 689 437 199 270 258 138 75 11
2047 2001 1959 1897 1818 1646 1238 1259 951 925 1096 764 636 555 536 491 413 309 538 564 552 496 440 449 576 683 772 868 913 1114 1488 1497 1075 668 512 470 471 492 558 646 728 745 724 740 765 824 898 987 1037 1030 1116 1191 1253 1294 1249 1146 1166 1165 1092 1138 1426 1806 1633 1799 1521 1459 1383 1378 1360 1154 1057 1045 940 778 702 616 474 451 490 423 249 127 174 129 53
1969 1909 1636 1353 1284 1162 1126 1053 981 919 877 1066 850 717 619 538 466 367 365 415 310 34 33 109 75 233 479 601 662 1264 1294 886 566 449 341 0 0 0 0 62 72 89 366 501 606 792 898 923 944 928 950 927 884 877 855 879 995 903 926 922 923 1058 1347 1528 1480 1359 1147 1076 1078 1041 1012 978 823 613 498 530 490 396 424 452 342 82 196 99 8
1650 1461 1447 1374 1286 1258 1191 1120 1000 920 826 771 900 923 876 750 591 650 517 445 189 0 0 1 0 0 15 438 637 845 912 767 641 483 370 283 214 142 58 2 0 0 0 0 342 516 608 718 802 792 758 708 668 675 661 673 695 689 667 715 794 807 726 1120 1214 1215 1075 967 968 1033 983 780 635 502 434 422 412 368 358 423 417 262 118 40 6
2002 1562 1458 1431 1328 1165 1098 973 942 906 867 767 802 808 708 597 674 584 580 538 58 0 0 0 0 0 0 205 342 383 602 561 499 423 304 231 159 115 41 6 3 2 1 0 0 49 315 518 798 845 879 772 571 570 646 677 671 676 619 567 653 637 645 880 933 1001 1128 1063 951 873 628 858 501 294 289 277 235 224 266 254 267 188 80 28 6
1555 1438 1408 1390 1316 1195 1123 1966 1608 1203 859 870 828 720 596 566 591 564 325 0 0 0 0 0 0 0 0 0 0 0 0 215 208 254 152 36 6 2 5 4 4 3 3 3 2 1 1 0 7 88 258 311 330 340 322 363 471 524 542 494 390 396 219 480 544 555 653 806 814 657 644 644 618 329 286 247 182 172 190 99 1 10 2 16 1
1662 1501 1485 1403 1270 2095 1234 1019 986 926 898 908 837 826 708 587 470 386 313 0 0 0 0 0 0 0 0 0 0 0 0 0 0 0 0 0 0 2 2 1 0 0 0 0 1 1 2 5 6 52 104 123 127 140 152 0 211 302 331 322 306 313 361 410 460 473 498 469 543 504 226 492 440 307 137 232 225 83 8 1 2 0 0 0 0
1848 1550 1500 1440 1515 1394 1238 1092 810 757 731 792 794 737 596 519 487 453 467 280 0 0 0 0 0 0 0 0 0 0 0 0 0 0 0 2 2 2 2 0 2 0 0 0 0 1 2 4 6 6 20 53 105 150 166 167 197 217 117 0 0 0 0 17 46 0 201 324 398 444 440 300 283 204 173 98 65 10 3 6 2 0 0 0 0
1229 1260 1217 1292 1168 1162 1133 1030 978 856 780 758 704 660 653 641 671 652 590 461 0 439 433 32 0 0 0 0 0 0 0 0 0 0 1 2 2 0 0 0 1 0 0 0 0 0 0 1 2 3 4 4 4 4 3 17 43 5 8 0 0 0 0 1 0 0 0 12 188 234 171 0 0 0 3 7 8 8 9 2 0 0 0 0 0
1112 1008 907 984 1020 1041 1059 1076 1050 1007 988 954 904 867 818 792 748 687 604 541 493 596 558 465 270 0 0 0 0 0 0 0 0 2 2 2 0 0 0 0 0 0 0 0 0 0 1 1 0 1 1 0 0 0 2 2 3 17 18 4 0 0 0 0 0 0 0 0 0 0 1 0 0 3 2 0 0 2 2 1 0 0 0 0 0
1017 922 890 694 654 898 792 926 990 848 824 816 851 842 815 777 727 676 616 639 681 679 610 530 306 0 0 0 0 0 0 0 1 2 0 0 0 0 0 0 0 0 0 0 0 0 0 0 0 0 0 0 0 0 0 1 0 0 1 6 4 1 0 27 90 69 33 35 21 7 2 0 0 8 1 1 1 0 1 0 0 0 0 2 0
848 892 799 878 839 575 619 688 698 671 764 884 909 893 855 790 750 725 870 835 720 673 610 556 519 470 306 0 0 0 0 0 0 0 0 0 0 0 0 0 0 0 0 0 0 0 0 0 0 0 0 0 0 0 0 0 0 0 0 0 0 0 0 0 13 39 50 83 44 7 2 3 0 3 2 0 1 8 9 9 4 0 0 0 0
909 1365 1292 938 966 891 725 528 557 721 773 862 997 1067 849 978 910 926 854 674 612 586 594 581 567 562 446 227 0 0 1 0 0 0 0 0 0 0 0 0 0 0 0 0 0 0 0 0 0 0 0 0 0 0 0 0 0 0 0 0 0 0 0 0 0 0 0 0 0 1 3 6 4 0 0 2 7 5 0 0 0 0 0 0 0
903 881 1115 1086 781 734 688 611 656 802 802 823 852 887 890 1069 855 815 752 677 619 592 550 515 549 565 434 339 9 0 0 0 0 0 0 0 0 0 0 0 0 0 0 0 0 0 0 0 0 0 0 0 0 0 0 0 0 0 0 0 0 0 0 0 0 0 0 0 3 7 10 10 1 0 1 0 0 0 0 0 0 0 0 0 0
657 648 696 724 715 663 620 651 752 840 868 835 924 829 756 763 943 947 801 661 570 498 456 486 539 516 0 1 0 0 0 0 0 0 0 0 0 0 0 0 0 0 0 0 0 0 0 0 0 0 0 0 0 0 0 0 0 0 0 0 0 0 0 0 0 0 0 0 0 0 0 0 0 0 0 0 0 0 0 0 0 0 0 0 0
504 384 319 547 578 553 470 571 639 756 876 875 778 648 660 671 842 1020 781 634 535 475 442 422 428 25 0 0 1 0 0 0 0 0 0 0 0 0 0 0 0 0 0 0 0 0 0 0 0 0 0 0 0 0 0 0 0 0 0 0 0 0 0 0 0 0 0 0 0 0 0 0 0 0 0 0 0 0 0 0 0 0 0 0 0
491 482 274 440 447 464 450 486 565 677 739 729 652 533 528 568 738 725 735 554 506 450 220 397 246 0 0 0 0 0 0 0 0 0 0 0 0 0 0 0 0 0 0 0 0 0 0 0 0 0 0 0 0 0 0 0 0 0 0 0 0 0 0 0 0 0 0 0 0 0 0 0 0 0 0 0 0 0 0 0 0 0 0 0 0
233 349 291 344 367 375 417 562 560 603 694 718 565 400 496 942 798 678 591 500 400 377 389 127 0 0 0 0 0 0 0 0 0 0 0 0 25 0 0 0 0 0 0 0 0 0 0 0 0 0 0 0 0 0 0 0 0 0 0 0 0 0 0 0 0 0 0 0 0 0 0 0 0 0 0 0 0 0 0 0 0 0 0 0 0
384 412 484 341 331 334 448 622 597 689 796 753 577 555 471 471 572 676 571 284 112 170 125 0 0 0 0 0 0 0 0 101 202 201 310 336 258 0 0 0 0 0 0 0 0 0 0 0 0 0 0 0 0 0 0 0 0 0 0 0 0 0 0 0 0 0 0 0 0 0 0 0 0 0 0 0 0 0 0 0 0 0 0 0 0
560 522 356 301 106 250 285 356 455 699 791 652 608 670 625 625 645 713 669 626 587 494 403 351 70 0 0 0 0 0 0 0 0 0 0 0 0 0 0 0 0 0 0 0 0 0 0 0 0 0 0 0 0 0 0 0 0 0 0 0 0 0 0 0 0 0 0 0 0 0 0 0 0 0 0 0 0 0 0 0 0 0 0 0 0
511 450 446 540 513 428 388 360 263 206 197 198 276 696 859 747 732 666 472 603 628 593 539 478 423 355 228 10 0 0 0 0 0 0 0 0 0 0 0 0 0 0 0 0 0 0 0 0 0 0 0 0 0 0 0 0 0 0 0 0 0 0 0 0 0 0 0 0 0 0 0 0 0 0 0 0 0 0 0 0 0 0 0 0 0
370 406 371 396 492 589 516 426 268 174 124 281 525 382 318 466 506 466 513 563 559 542 617 560 502 440 371 295 128 0 0 0 0 0 0 0 0 0 0 0 0 0 0 0 0 0 0 0 0 0 0 0 0 0 0 0 0 0 0 0 0 0 0 0 0 0 0 0 0 0 0 0 0 0 0 0 0 0 0 0 0 0 0 0 0
267 296 246 246 424 517 284 132 112 127 128 203 104 109 468 542 344 432 559 629 623 612 575 519 462 390 370 351 318 265 220 174 151 0 0 0 0 0 0 0 2 11 10 0 0 0 0 0 0 0 0 0 0 0 0 0 0 0 0 0 0 0 0 0 0 0 0 0 0 0 0 0 0 0 0 0 0 0 0 0 0 0 0 0 0
455 389 259 222 210 156 185 125 260 230 167 77 30 20 24 50 56 123 180 273 388 456 478 557 591 568 491 422 370 315 271 231 208 0 0 0 0 0 0 0 0 0 8 3 0 0 0 0 0 0 0 0 0 0 0 0 0 0 0 0 0 0 0 0 0 0 0 0 0 0 0 0 0 0 0 0 0 0 0 0 0 0 0 0 0
464 329 340 312 330 340 289 321 445 507 182 75 50 35 1 0 0 2 11 146 172 247 378 501 550 579 561 505 418 361 308 274 228 0 0 0 0 0 0 0 0 0 1 16 9 0 0 0 0 0 0 0 0 0 0 0 0 0 0 0 0 0 0 0 0 0 0 0 0 0 0 0 0 0 0 0 0 0 0 0 0 0 0 0 0
414 464 533 546 536 467 456 439 385 344 298 336 290 350 107 57 70 91 0 0 1 0 129 214 343 455 481 415 363 330 313 276 214 5 0 0 0 0 0 0 0 0 0 4 28 20 0 0 0 0 0 0 0 0 0 0 0 0 0 0 0 0 0 0 0 0 0 0 0 0 0 0 0 0 0 0 0 0 0 0 0 0 0 0 0
252 230 232 255 271 345 449 487 487 463 369 318 312 298 244 201 168 159 40 95 274 241 20 36 126 222 324 345 324 272 212 193 197 173 82 0 0 0 0 0 0 0 0 0 0 41 63 0 0 0 0 0 0 0 0 0 0 0 0 0 0 0 0 0 0 0 0 0 0 0 0 0 0 0 0 0 0 0 0 0 0 0 0 0 0
170 186 177 167 190 188 208 255 249 218 209 215 279 298 312 365 398 450 501 515 381 254 259 254 154 125 88 101 116 122 125 90 56 110 48 127 80 0 0 0 0 0 0 0 0 0 0 9 68 82 0 0 0 0 0 0 0 0 0 0 0 0 0 0 0 0 0 0 0 0 0 0 0 0 0 0 0 0 0 0 0 0 0 0 0
115 117 112 127 160 201 206 212 219 225 225 247 233 207 204 227 226 236 232 238 245 259 324 285 223 171 11 23 0 33 70 107 136 52 138 104 97 106 126 130 127 34 24 0 0 0 0 0 0 0 38 21 0 0 0 0 0 0 0 0 0 0 0 0 0 0 0 0 0 0 0 0 0 0 0 0 0 0 0 0 0 0 0 0 0
Wind_Speed
11 11 11 10 10 8 6 6 5 6 5 5 5 6 8 9 10 10 13 14 15 15 14 15 15 14 13 13 12 13 13 13 13 14 15 15 16 17 17 18 17 16 17 15 14 13 13 13 12 14 16 18 19 20 19 19 19 19 20 21 20 20 21 21 21 20 17 18 21 20 21 22 20 22 24 23 23 23 nan nan nan nan nan nan nan
14 13 11 11 11 10 8 8 7 7 5 5 5 6 7 9 10 11 11 13 16 15 15 15 15 15 14 13 13 13 13 12 12 13 13 14 14 16 15 16 17 16 17 15 13 13 13 12 13 15 18 20 22 23 22 22 22 22 21 21 21 21 20 22 21 22 20 19 21 21 21 19 21 18 23 25 24 23 24 nan nan nan nan nan nan
17 12 12 12 12 11 11 11 10 8 6 6 5 5 7 8 10 10 10 12 14 15 15 14 14 14 13 13 13 13 13 12 12 12 12 12 13 14 15 14 14 14 14 13 13 13 13 13 14 17 21 23 23 24 24 23 23 23 22 21 22 22 20 20 22 20 23 21 22 22 20 19 19 20 21 22 23 nan 25 nan nan nan nan nan nan
12 8 10 11 11 12 13 13 12 11 8 7 6 6 7 8 9 9 10 11 11 14 15 14 14 14 13 12 11 11 12 12 11 11 11 11 12 12 12 12 13 13 13 13 13 14 14 15 16 20 22 23 24 25 24 25 25 24 23 21 22 22 21 20 20 22 21 24 20 22 20 22 20 22 22 23 24 24 nan nan nan nan nan nan nan
11 11 13 13 12 14 15 16 16 14 11 10 9 8 8 9 11 11 14 14 15 15 15 15 15 16 14 12 12 11 11 11 11 10 11 12 12 11 11 11 12 12 13 14 14 15 16 17 19 22 24 24 25 26 25 25 25 25 23 22 22 22 23 22 21 22 24 23 23 20 22 22 22 23 25 26 24 nan nan nan nan nan nan nan nan
9 11 12 12 13 15 17 19 19 17 14 13 12 11 11 12 13 13 13 13 13 14 14 14 14 15 15 14 13 12 12 12 12 11 12 12 13 12 11 11 11 12 13 14 16 18 19 19 20 23 25 25 25 26 25 25 25 25 24 22 23 24 24 23 23 23 24 24 24 22 20 24 23 22 23 25 27 27 nan nan nan nan nan nan nan
8 9 10 10 12 14 17 19 20 19 18 17 18 16 13 13 13 12 13 13 13 13 13 12 14 17 16 16 16 16 14 13 13 13 14 15 15 14 13 12 12 13 13 14 17 19 21 21 22 24 25 25 27 28 27 26 26 25 24 24 24 25 25 24 24 25 24 26 23 21 23 22 25 25 23 25 26 26 nan nan nan nan nan nan nan
8 7 4 6 12 14 15 16 17 18 18 18 18 17 16 15 14 14 16 15 14 15 14 14 15 18 20 21 20 19 18 16 15 15 15 17 18 17 16 15 14 14 14 16 18 20 21 22 23 24 25 26 27 28 30 28 27 26 25 26 26 26 26 26 26 25 25 25 25 23 22 24 23 23 25 28 29 25 nan nan nan nan nan nan nan
8 5 8 9 12 14 14 14 14 14 17 18 16 17 17 17 17 17 16 15 15 15 16 15 15 15 17 19 20 20 18 17 18 17 17 17 19 19 19 19 19 18 17 18 20 21 22 23 23 25 25 25 27 29 29 31 30 28 27 28 27 27 27 26 26 26 25 25 25 25 26 25 25 29 28 28 29 29 nan nan nan nan nan nan nan
11 12 10 10 13 14 14 16 16 16 16 15 15 16 17 18 20 21 21 19 18 18 17 17 16 15 15 16 17 17 17 19 19 15 17 20 20 20 20 21 21 21 21 21 21 22 22 24 25 24 25 25 26 28 30 31 31 31 31 30 30 29 28 28 27 26 26 26 26 27 27 26 28 29 30 29 30 30 32 nan nan nan nan nan nan
9 8 8 9 12 14 14 14 16 15 13 14 15 14 12 12 13 16 18 19 20 21 20 18 17 16 15 16 16 16 17 20 17 17 19 20 23 23 23 22 23 23 23 23 22 22 23 24 25 24 25 25 26 26 29 31 31 30 32 33 33 33 31 30 27 27 27 26 26 26 27 28 28 30 29 31 31 33 34 nan nan nan nan nan nan
7 6 8 10 11 13 13 12 12 11 10 12 14 13 12 11 9 9 10 11 14 17 17 17 18 19 19 17 17 17 18 17 16 16 17 19 22 24 25 24 24 23 23 23 24 25 25 26 26 27 27 27 27 27 27 29 30 30 31 31 31 33 35 33 31 28 27 27 26 25 27 27 28 30 30 32 32 33 34 nan nan nan nan nan nan
9 8 8 9 11 12 13 13 12 12 10 8 10 12 10 8 10 11 10 9 10 11 11 12 13 16 18 17 17 19 20 19 16 14 15 18 20 23 25 25 25 24 23 23 24 26 27 27 27 28 28 27 28 29 28 28 29 30 30 31 29 30 31 32 34 32 30 28 27 27 27 28 30 29 31 34 35 36 37 36 nan nan nan nan nan
10 10 11 11 12 13 13 13 14 14 14 12 10 9 10 7 7 10 11 12 12 12 11 10 11 12 14 16 16 18 21 21 18 17 16 18 20 24 26 26 26 25 24 24 25 26 26 27 27 27 28 29 30 30 30 30 30 30 29 31 29 27 29 29 30 31 32 29 28 27 27 30 29 30 32 36 39 38 39 39 nan nan nan nan nan
11 11 12 13 14 14 14 14 19 23 20 15 12 9 9 9 8 9 9 10 12 12 13 15 12 10 11 13 14 15 17 22 24 22 20 21 24 28 28 28 28 28 27 27 26 25 25 25 26 26 28 29 30 32 33 33 33 31 30 31 31 31 30 29 29 30 30 29 28 27 29 30 29 32 35 36 38 39 42 44 44 nan nan nan nan
11 11 12 13 13 12 13 14 19 24 22 19 16 12 9 7 8 11 13 13 14 16 16 12 8 7 10 11 12 11 13 15 17 23 27 29 29 32 32 32 33 33 32 30 28 27 26 25 26 27 28 27 26 32 35 36 36 34 31 30 31 31 30 30 31 31 30 30 30 29 29 31 32 35 36 36 37 39 40 39 40 nan nan nan nan
11 10 11 11 11 12 13 14 15 21 24 24 22 20 20 18 15 12 11 9 9 10 8 6 5 7 9 10 11 11 12 13 13 15 19 22 26 29 33 39 41 40 35 32 30 28 27 28 28 26 29 33 32 27 27 34 35 36 35 31 30 29 29 30 30 30 28 27 27 27 28 30 36 37 36 38 40 44 45 42 40 nan nan nan nan
10 10 9 10 10 12 14 15 16 17 18 17 16 16 17 18 19 19 18 17 16 16 14 12 12 11 11 10 10 10 12 13 11 11 12 15 20 25 32 33 36 32 28 26 27 26 26 24 27 30 32 28 28 28 30 32 35 39 37 33 32 30 28 31 34 32 28 26 25 26 28 32 32 31 35 41 47 45 43 38 38 nan nan nan nan
10 9 9 9 11 13 15 16 17 17 17 16 16 15 14 13 13 14 14 15 14 15 16 15 15 15 14 13 8 9 12 14 14 13 13 13 18 23 28 25 26 25 25 23 25 28 28 27 24 27 30 29 27 27 31 36 35 37 37 37 37 34 30 32 35 35 35 33 30 29 28 31 32 33 35 41 47 44 39 36 39 40 nan nan nan
10 11 12 12 13 15 16 17 18 18 18 18 17 15 14 14 12 13 13 14 13 13 14 15 16 15 16 15 14 13 12 14 14 12 13 13 14 18 22 23 20 16 17 21 24 26 27 29 30 29 29 30 29 29 31 35 34 34 36 38 36 32 31 34 34 35 35 36 33 33 32 34 37 39 38 38 39 40 40 39 40 41 nan nan nan
16 16 16 17 18 18 19 19 19 19 19 19 19 18 17 16 16 16 16 15 15 15 15 15 15 15 15 16 16 15 15 15 15 13 12 13 15 18 18 18 17 15 16 19 22 24 27 29 31 30 29 27 26 26 27 31 31 33 36 38 35 30 36 36 32 33 36 36 36 39 39 38 38 38 38 37 39 39 39 40 40 40 40 nan nan
20 21 21 20 20 20 20 20 20 20 20 22 21 20 19 19 19 19 19 19 18 17 17 17 17 16 15 15 16 16 15 14 17 16 15 14 15 17 17 16 17 17 16 18 21 22 25 27 27 26 24 22 22 23 24 28 30 35 37 32 27 32 40 34 35 36 36 35 38 40 40 39 38 39 39 39 37 36 37 38 38 37 35 35 nan
22 23 22 22 21 21 20 19 20 20 19 19 20 20 19 20 21 20 20 19 18 18 17 17 18 17 17 16 16 16 17 20 23 24 28 27 24 20 15 15 15 17 17 18 20 22 25 26 24 21 19 19 22 22 23 26 34 33 29 23 23 31 36 38 36 38 35 34 34 34 36 36 36 35 37 39 40 41 41 38 38 37 37 nan nan
22 22 22 22 22 21 19 18 19 19 19 19 19 19 19 20 20 21 22 21 21 19 18 18 18 18 18 17 17 19 23 26 27 29 28 28 27 24 21 16 16 18 19 20 23 24 25 27 29 31 27 22 21 23 26 30 27 21 26 24 21 25 36 35 36 37 38 36 34 33 34 34 34 34 34 36 38 41 40 38 39 39 39 39 nan
21 22 21 21 21 19 17 17 18 18 18 17 16 18 19 19 19 20 23 23 22 nan nan 21 nan 20 21 21 20 22 25 26 27 29 31 nan nan nan nan nan nan nan 22 21 23 24 25 25 25 26 25 24 24 24 28 30 24 20 21 23 26 32 31 32 35 37 36 35 34 33 34 35 36 37 37 37 38 39 41 40 41 nan 39 nan nan
21 21 20 20 19 18 16 16 18 18 16 17 18 19 18 18 20 21 23 24 22 nan nan nan nan nan nan 23 24 23 24 25 27 28 29 30 30 30 nan nan nan nan nan nan 24 25 27 30 31 30 30 30 29 32 31 29 24 22 22 23 28 28 30 30 33 34 33 34 35 35 35 36 38 39 40 40 39 37 38 40 41 41 42 nan nan
21 20 20 21 20 19 18 17 17 22 22 23 23 23 22 22 22 22 23 23 nan nan nan nan nan nan nan 24 23 23 26 26 27 27 27 28 28 28 nan nan nan nan nan nan nan nan 33 35 35 37 38 38 38 38 38 33 31 28 32 31 28 28 28 31 32 30 29 34 37 38 36 36 37 39 40 41 41 39 39 42 43 43 nan nan nan
22 21 21 21 20 19 19 17 22 25 25 24 24 24 23 22 23 22 22 nan nan nan nan nan nan nan nan nan nan nan nan 25 26 25 25 nan nan nan nan nan nan nan nan nan nan nan nan nan nan nan 35 36 36 36 36 37 35 34 35 35 35 34 38 44 43 41 40 37 35 36 38 39 39 40 40 41 42 42 42 nan nan nan nan nan nan
23 23 23 23 20 21 24 24 24 25 26 26 25 24 21 21 23 22 21 nan nan nan nan nan nan nan nan nan nan nan nan nan nan nan nan nan nan nan nan nan nan nan nan nan nan nan nan nan nan nan 35 36 36 35 35 nan 36 35 36 37 38 39 38 40 41 42 43 42 39 37 35 35 40 45 48 48 49 nan nan nan nan nan nan nan nan
27 27 29 27 25 25 25 26 25 25 25 24 23 25 27 24 21 21 21 21 nan nan nan nan nan nan nan nan nan nan nan nan nan nan nan nan nan nan nan nan nan nan nan nan nan nan nan nan nan nan nan nan 36 36 35 34 34 35 35 nan nan nan nan nan nan nan 41 42 42 41 39 38 43 51 53 nan nan nan nan nan nan nan nan nan nan
27 25 25 22 20 21 23 23 23 24 24 24 23 23 22 24 25 25 24 23 nan 21 22 nan nan nan nan nan nan nan nan nan nan nan nan nan nan nan nan nan nan nan nan nan nan nan nan nan nan nan nan nan nan nan nan nan nan nan nan nan nan nan nan nan nan nan nan nan 36 38 38 nan nan nan nan nan nan nan nan nan nan nan nan nan nan
29 27 27 24 21 17 18 21 24 25 23 23 23 22 22 23 23 22 22 25 23 21 21 22 23 nan nan nan nan nan nan nan nan nan nan nan nan nan nan nan nan nan nan nan nan nan nan nan nan nan nan nan nan nan nan nan nan nan nan nan nan nan nan nan nan nan nan nan nan nan nan nan nan nan nan nan nan nan nan nan nan nan nan nan nan
30 28 26 24 23 23 20 19 20 23 25 25 24 24 24 24 24 24 23 23 25 24 24 24 24 nan nan nan nan nan nan nan nan nan nan nan nan nan nan nan nan nan nan nan nan nan nan nan nan nan nan nan nan nan nan nan nan nan nan nan nan nan nan nan nan nan nan nan nan nan nan nan nan nan nan nan nan nan nan nan nan nan nan nan nan
28 29 29 29 26 21 18 17 17 18 20 23 24 25 24 24 22 25 27 26 24 24 25 25 25 26 24 nan nan nan nan nan nan nan nan nan nan nan nan nan nan nan nan nan nan nan nan nan nan nan nan nan nan nan nan nan nan nan nan nan nan nan nan nan nan nan nan nan nan nan nan nan nan nan nan nan nan nan nan nan nan nan nan nan nan
28 30 36 34 31 29 26 21 18 16 16 19 23 25 26 25 26 26 25 26 26 27 28 27 27 26 26 27 nan nan nan nan nan nan nan nan nan nan nan nan nan nan nan nan nan nan nan nan nan nan nan nan nan nan nan nan nan nan nan nan nan nan nan nan nan nan nan nan nan nan nan nan nan nan nan nan nan nan nan nan nan nan nan nan nan
30 30 30 32 31 30 29 28 25 20 18 17 20 23 26 28 28 26 27 28 28 29 29 27 28 28 28 29 nan nan nan nan nan nan nan nan nan nan nan nan nan nan nan nan nan nan nan nan nan nan nan nan nan nan nan nan nan nan nan nan nan nan nan nan nan nan nan nan nan nan nan nan nan nan nan nan nan nan nan nan nan nan nan nan nan
32 32 30 27 25 25 27 28 27 23 21 20 20 20 22 24 26 28 30 30 29 30 32 31 30 29 nan nan nan nan nan nan nan nan nan nan nan nan nan nan nan nan nan nan nan nan nan nan nan nan nan nan nan nan nan nan nan nan nan nan nan nan nan nan nan nan nan nan nan nan nan nan nan nan nan nan nan nan nan nan nan nan nan nan nan
33 32 31 28 26 24 24 25 24 22 22 23 21 20 20 21 24 28 31 31 31 33 33 31 30 nan nan nan nan nan nan nan nan nan nan nan nan nan nan nan nan nan nan nan nan nan nan nan nan nan nan nan nan nan nan nan nan nan nan nan nan nan nan nan nan nan nan nan nan nan nan nan nan nan nan nan nan nan nan nan nan nan nan nan nan
30 30 30 32 30 28 26 24 22 21 22 24 24 23 22 23 25 28 30 30 32 33 33 33 32 nan nan nan nan nan nan nan nan nan nan nan nan nan nan nan nan nan nan nan nan nan nan nan nan nan nan nan nan nan nan nan nan nan nan nan nan nan nan nan nan nan nan nan nan nan nan nan nan nan nan nan nan nan nan nan nan nan nan nan nan
29 29 31 33 31 29 28 25 24 24 24 23 23 23 24 25 26 27 28 31 31 32 33 33 nan nan nan nan nan nan nan nan nan nan nan nan nan nan nan nan nan nan nan nan nan nan nan nan nan nan nan nan nan nan nan nan nan nan nan nan nan nan nan nan nan nan nan nan nan nan nan nan nan nan nan nan nan nan nan nan nan nan nan nan nan
29 29 29 31 31 30 27 26 25 24 24 24 25 25 25 26 27 28 28 29 30 30 31 nan nan nan nan nan nan nan nan 31 30 29 28 27 26 nan nan nan nan nan nan nan nan nan nan nan nan nan nan nan nan nan nan nan nan nan nan nan nan nan nan nan nan nan nan nan nan nan nan nan nan nan nan nan nan nan nan nan nan nan nan nan nan
29 30 31 32 32 31 30 28 28 27 27 27 26 26 25 25 26 28 29 29 29 29 29 30 nan nan nan nan nan nan nan nan nan nan nan nan nan nan nan nan nan nan nan nan nan nan nan nan nan nan nan nan nan nan nan nan nan nan nan nan nan nan nan nan nan nan nan nan nan nan nan nan nan nan nan nan nan nan nan nan nan nan nan nan nan
29 31 32 33 34 32 31 29 28 28 27 27 27 27 27 27 27 29 29 30 30 31 31 31 31 34 33 nan nan nan nan nan nan nan nan nan nan nan nan nan nan nan nan nan nan nan nan nan nan nan nan nan nan nan nan nan nan nan nan nan nan nan nan nan nan nan nan nan nan nan nan nan nan nan nan nan nan nan nan nan nan nan nan nan nan
30 30 31 32 33 33 31 30 29 29 27 26 27 28 29 29 29 29 29 29 30 31 31 32 34 34 33 35 35 nan nan nan nan nan nan nan nan nan nan nan nan nan nan nan nan nan nan nan nan nan nan nan nan nan nan nan nan nan nan nan nan nan nan nan nan nan nan nan nan nan nan nan nan nan nan nan nan nan nan nan nan nan nan nan nan
30 30 31 31 32 34 33 32 31 29 28 28 28 29 30 30 29 29 30 30 30 29 29 30 32 34 35 35 33 32 32 32 32 nan nan nan nan nan nan nan nan nan nan nan nan nan nan nan nan nan nan nan nan nan nan nan nan nan nan nan nan nan nan nan nan nan nan nan nan nan nan nan nan nan nan nan nan nan nan nan nan nan nan nan nan
30 30 30 30 30 31 31 31 31 31 30 nan nan nan nan nan nan 32 31 30 30 29 29 29 31 33 35 34 32 31 30 30 29 nan nan nan nan nan nan nan nan nan nan nan nan nan nan nan nan nan nan nan nan nan nan nan nan nan nan nan nan nan nan nan nan nan nan nan nan nan nan nan nan nan nan nan nan nan nan nan nan nan nan nan nan
32 32 31 31 31 30 30 30 30 31 31 nan nan nan nan nan nan nan nan 33 32 30 29 29 31 31 33 34 33 30 29 28 26 nan nan nan nan nan nan nan nan nan nan nan nan nan nan nan nan nan nan nan nan nan nan nan nan nan nan nan nan nan nan nan nan nan nan nan nan nan nan nan nan nan nan nan nan nan nan nan nan nan nan nan nan
34 34 33 32 32 32 30 30 29 30 31 31 31 30 29 nan nan nan nan nan nan nan 35 34 31 30 31 32 33 32 31 29 28 nan nan nan nan nan nan nan nan nan nan nan nan nan nan nan nan nan nan nan nan nan nan nan nan nan nan nan nan nan nan nan nan nan nan nan nan nan nan nan nan nan nan nan nan nan nan nan nan nan nan nan nan
34 35 34 32 31 31 30 29 29 30 29 29 29 29 29 28 27 28 nan nan 32 34 nan nan 33 31 31 31 33 34 33 32 29 27 nan nan nan nan nan nan nan nan nan nan nan nan nan nan nan nan nan nan nan nan nan nan nan nan nan nan nan nan nan nan nan nan nan nan nan nan nan nan nan nan nan nan nan nan nan nan nan nan nan nan nan
32 32 31 31 30 29 28 29 30 30 30 29 29 29 28 27 27 27 27 28 30 32 33 34 35 34 nan 34 34 34 34 nan nan 28 nan 26 nan nan nan nan nan nan nan nan nan nan nan nan nan nan nan nan nan nan nan nan nan nan nan nan nan nan nan nan nan nan nan nan nan nan nan nan nan nan nan nan nan nan nan nan nan nan nan nan nan
31 31 30 30 29 28 29 29 29 29 29 28 29 29 30 29 29 28 29 30 31 32 33 34 35 35 nan nan nan nan nan 34 34 nan 32 31 nan 29 29 29 30 nan nan nan nan nan nan nan nan nan nan nan nan nan nan nan nan nan nan nan nan nan nan nan nan nan nan nan nan nan nan nan nan nan nan nan nan nan nan nan nan nan nan nan nan
Wind_Direction
252 248 253 252 252 259 259 252 245 237 236 238 235 235 235 237 234 227 228 224 226 228 228 229 232 229 225 221 222 224 224 227 233 238 242 243 242 241 238 241 244 244 248 244 247 250 255 260 263 268 269 273 272 271 271 276 285 287 286 287 289 286 288 288 285 282 273 274 283 285 286 289 286 294 297 296 296 298 nan nan nan nan nan nan nan
241 248 253 255 257 262 262 257 255 241 237 232 235 243 244 244 245 240 234 232 235 232 229 228 229 229 226 222 221 224 227 229 233 238 241 242 239 240 239 241 244 246 249 249 247 250 252 259 265 267 271 273 273 273 274 274 278 280 281 285 286 287 285 278 284 289 284 287 286 289 293 294 285 289 295 298 299 298 298 nan nan nan nan nan nan
224 235 247 252 255 260 260 259 259 260 255 240 238 244 246 248 250 250 244 239 242 242 239 235 233 234 230 228 227 227 231 231 232 235 237 241 241 238 238 243 246 248 251 251 251 253 256 262 269 272 271 275 275 274 273 275 274 277 278 277 281 282 284 281 282 281 291 288 288 293 298 297 294 297 291 290 294 nan 298 nan nan nan nan nan nan
251 264 263 266 267 266 267 263 265 264 262 251 243 241 245 246 247 245 244 243 244 247 246 244 242 240 240 237 236 233 236 240 241 242 243 244 244 243 242 245 248 251 254 254 255 260 266 270 273 276 278 279 279 277 277 279 281 280 280 278 279 281 278 279 283 281 286 282 287 291 292 294 283 287 286 288 294 296 nan nan nan nan nan nan nan
262 268 274 278 277 273 274 268 265 262 261 255 253 246 241 241 241 243 244 237 232 231 241 248 249 253 252 248 245 243 247 253 253 254 253 252 253 251 251 251 253 256 261 265 268 271 273 277 280 279 280 283 280 281 283 284 285 285 284 280 279 278 276 279 279 281 288 288 282 282 286 280 281 289 293 294 294 nan nan nan nan nan nan nan nan
242 248 264 277 278 281 279 274 270 264 258 254 254 251 247 245 245 243 245 244 237 232 225 233 247 254 258 258 255 257 262 265 269 271 270 266 262 257 255 255 256 259 263 270 275 276 278 280 281 283 283 285 285 285 285 286 283 284 282 280 277 275 277 276 277 280 284 287 291 283 278 283 282 284 292 294 298 296 nan nan nan nan nan nan nan
249 224 237 278 285 292 291 288 278 266 253 248 246 247 248 247 246 245 247 247 245 236 227 220 234 245 245 249 259 265 266 268 270 274 275 276 275 272 267 264 261 260 264 271 276 279 282 282 282 284 286 286 286 287 287 285 285 284 284 282 278 278 278 278 277 279 280 281 280 282 283 281 288 292 293 291 291 296 nan nan nan nan nan nan nan
249 209 207 284 299 299 298 294 285 272 259 254 254 254 254 255 254 251 246 243 241 239 235 230 232 238 241 242 242 247 254 259 261 263 266 270 272 274 276 274 272 269 268 270 273 277 281 283 283 284 287 287 288 287 289 289 284 284 282 279 278 278 278 277 278 280 281 280 284 286 284 286 284 277 285 290 293 297 nan nan nan nan nan nan nan
295 2 14 325 303 298 296 293 284 272 262 259 259 261 262 261 259 255 248 242 240 242 241 239 232 231 238 244 243 245 250 254 255 258 260 260 262 266 270 273 274 271 268 268 270 273 275 279 281 282 285 291 298 293 293 291 287 287 284 282 282 281 278 278 281 281 280 281 280 281 285 286 290 292 294 297 307 311 nan nan nan nan nan nan nan
346 2 343 302 289 291 290 288 289 281 275 274 268 265 262 259 254 248 244 241 239 238 236 235 236 238 243 247 251 253 255 256 260 273 271 264 263 262 263 268 271 271 270 268 267 270 273 275 278 292 295 299 301 302 300 301 299 292 291 289 288 286 283 283 282 284 284 285 286 288 291 293 295 298 300 302 298 293 299 nan nan nan nan nan nan
332 320 307 282 279 281 283 289 294 299 295 280 279 284 282 273 263 253 246 241 237 233 231 231 233 235 240 245 250 254 256 258 266 275 281 279 268 263 262 265 270 274 275 275 274 274 272 273 274 282 290 291 291 300 300 302 304 302 300 301 297 295 290 288 287 288 289 289 288 291 296 299 300 298 301 299 300 303 305 nan nan nan nan nan nan
270 262 262 265 275 282 283 288 294 300 297 299 299 301 307 307 298 280 263 252 241 235 233 236 236 233 234 238 246 250 253 258 269 275 281 284 277 268 265 264 265 269 273 276 275 274 274 274 274 274 276 281 281 284 293 302 304 304 303 302 302 304 299 295 292 289 290 290 290 296 296 298 298 297 297 297 300 300 303 nan nan nan nan nan nan
256 256 261 274 281 284 284 291 296 297 296 287 289 298 304 305 304 298 303 295 270 256 254 257 249 240 237 238 242 248 248 251 258 263 268 274 276 271 264 265 267 266 268 271 273 273 273 273 274 275 276 286 284 281 282 285 296 302 300 302 303 305 302 306 302 297 294 294 296 296 299 297 297 300 302 304 300 303 301 302 nan nan nan nan nan
252 252 257 265 273 280 287 288 286 279 271 262 249 250 269 289 299 293 290 287 279 263 256 266 260 251 248 246 245 246 248 248 257 264 268 271 274 272 266 269 269 269 269 268 267 271 275 277 277 277 278 279 281 283 282 281 281 284 288 288 288 295 300 301 305 307 301 297 297 299 300 295 301 301 300 296 303 306 307 309 nan nan nan nan nan
251 253 258 262 266 272 279 282 275 265 260 256 243 237 235 222 223 233 237 246 253 245 234 229 230 239 242 246 248 250 252 245 241 247 255 259 259 263 263 262 263 264 265 267 269 271 273 278 281 280 278 280 283 288 287 286 284 284 288 292 293 292 293 295 295 292 294 294 297 301 297 300 303 300 300 305 312 311 313 314 314 nan nan nan nan
257 255 259 265 273 280 285 287 284 287 294 296 298 291 276 252 228 223 219 214 216 218 214 214 212 230 243 244 245 245 250 242 241 245 255 263 270 268 266 263 259 256 254 256 259 264 268 273 278 280 282 288 295 303 299 291 291 292 295 295 293 291 294 298 303 302 301 299 298 299 299 304 307 298 302 308 309 300 294 285 284 nan nan nan nan
260 260 260 268 278 287 293 294 295 298 307 316 320 315 305 305 303 289 278 271 266 269 270 277 287 260 245 247 248 245 244 244 247 259 267 271 271 268 265 261 253 246 245 248 251 257 264 269 270 272 268 266 262 268 287 292 290 293 286 283 284 285 289 288 296 306 307 305 304 304 302 301 296 293 308 315 301 295 293 295 300 nan nan nan nan
253 258 262 272 284 290 293 295 295 295 296 299 301 300 301 305 310 312 309 308 305 305 306 300 283 276 269 263 264 254 249 251 254 258 264 274 275 272 268 265 263 254 246 250 255 259 262 271 274 275 279 284 291 293 290 289 281 281 286 288 284 283 283 281 279 284 292 293 293 290 286 287 296 306 308 303 296 292 293 303 303 nan nan nan nan
257 262 268 273 279 282 283 284 284 284 286 288 289 292 296 298 298 299 301 297 293 288 282 280 276 274 275 276 263 259 262 264 271 275 276 281 281 277 282 283 270 257 250 246 248 252 256 261 273 283 283 286 294 293 290 288 284 284 287 289 289 291 291 286 283 283 282 282 282 280 279 283 281 280 282 293 297 298 293 293 287 293 nan nan nan
265 260 261 263 264 264 264 268 269 273 277 279 283 288 286 283 288 291 292 295 294 289 282 279 278 276 276 278 280 278 275 273 276 286 288 291 295 285 285 293 299 290 265 252 249 254 261 264 271 283 288 286 288 289 287 291 287 284 280 279 282 287 286 282 283 284 283 284 285 284 283 278 276 278 281 286 294 294 290 288 288 291 nan nan nan
266 265 262 261 259 257 257 260 263 265 271 275 280 280 285 286 284 286 287 287 285 284 285 284 283 283 282 284 286 283 282 277 274 283 286 287 290 292 285 291 290 287 275 267 266 267 271 274 274 280 285 284 285 286 286 288 293 286 278 272 277 283 278 281 288 293 282 281 280 280 281 281 281 280 281 283 284 286 287 289 291 295 294 nan nan
271 271 271 269 266 263 261 257 260 267 268 271 275 279 279 279 278 278 274 273 273 273 274 277 280 280 280 281 283 285 283 284 272 270 269 268 271 288 282 283 284 278 272 268 268 268 270 271 272 272 276 281 281 282 282 279 276 272 278 293 303 290 278 284 287 290 289 286 283 280 281 284 285 279 277 279 281 287 292 291 291 291 288 293 nan
271 271 270 269 268 269 269 268 266 264 264 265 267 267 267 270 272 272 272 270 269 265 261 262 267 271 274 278 280 283 282 274 268 268 260 259 264 275 280 268 262 266 264 261 262 263 265 267 269 269 276 281 281 277 274 274 273 287 294 297 302 296 286 276 282 288 291 288 286 284 281 284 289 288 283 280 276 274 272 273 276 278 276 nan nan
270 270 268 269 268 268 269 269 268 268 268 267 264 262 263 264 265 269 271 270 268 266 264 266 267 267 266 266 270 275 275 275 270 271 270 264 260 262 263 262 255 259 255 254 254 256 257 260 259 252 250 248 254 264 267 277 288 299 305 306 299 288 281 282 286 291 291 290 292 289 281 278 282 286 284 277 273 268 265 266 272 274 277 280 nan
262 263 265 265 264 264 262 262 263 264 262 263 261 259 257 258 261 261 266 265 266 nan nan 265 nan 265 266 265 264 271 273 274 274 274 275 nan nan nan nan nan nan nan 255 256 253 256 257 256 256 258 259 259 261 266 274 288 302 301 297 303 296 287 292 293 291 289 292 296 296 291 282 274 272 271 272 273 269 264 263 265 269 nan 272 nan nan
257 258 255 255 258 258 254 248 250 256 258 257 255 256 261 266 268 263 264 267 267 nan nan nan nan nan nan 263 260 264 271 275 275 275 275 274 272 270 nan nan nan nan nan nan 258 254 256 262 263 264 266 265 266 267 269 272 278 284 291 292 289 292 294 294 293 295 298 296 294 292 284 276 273 271 270 269 267 266 267 267 270 272 273 nan nan
252 251 251 250 251 256 257 252 247 244 249 254 253 250 251 258 261 261 262 264 nan nan nan nan nan nan nan 258 260 260 265 268 270 272 274 272 273 274 nan nan nan nan nan nan nan nan 261 261 264 265 265 261 260 262 262 266 270 272 273 281 286 286 287 281 284 287 285 288 290 285 281 279 277 275 275 274 271 266 263 265 265 268 nan nan nan
250 250 249 249 245 244 251 247 249 253 248 246 249 250 250 256 259 259 262 nan nan nan nan nan nan nan nan nan nan nan nan 267 268 269 270 nan nan nan nan nan nan nan nan nan nan nan nan nan nan nan 268 268 266 265 265 266 267 268 268 271 273 274 274 273 270 269 269 269 270 273 276 280 280 277 276 275 274 272 270 nan nan nan nan nan nan
246 243 242 241 240 243 243 243 250 256 256 250 248 248 247 250 262 263 260 nan nan nan nan nan nan nan nan nan nan nan nan nan nan nan nan nan nan nan nan nan nan nan nan nan nan nan nan nan nan nan 269 271 270 269 268 nan 268 268 269 271 272 271 270 273 274 273 274 274 272 267 260 261 271 277 278 279 278 nan nan nan nan nan nan nan nan
245 240 234 230 235 242 245 249 253 258 261 262 258 252 247 247 248 265 269 270 nan nan nan nan nan nan nan nan nan nan nan nan nan nan nan nan nan nan nan nan nan nan nan nan nan nan nan nan nan nan nan nan 271 270 271 271 271 271 271 nan nan nan nan nan nan nan 274 275 277 278 279 281 282 281 276 nan nan nan nan nan nan nan nan nan nan
253 252 252 248 239 249 257 260 262 267 268 269 268 268 265 254 243 251 269 278 nan 277 276 nan nan nan nan nan nan nan nan nan nan nan nan nan nan nan nan nan nan nan nan nan nan nan nan nan nan nan nan nan nan nan nan nan nan nan nan nan nan nan nan nan nan nan nan nan 274 268 264 nan nan nan nan nan nan nan nan nan nan nan nan nan nan
297 303 301 302 292 282 277 285 288 285 284 283 282 281 277 274 265 257 266 278 277 277 280 280 279 nan nan nan nan nan nan nan nan nan nan nan nan nan nan nan nan nan nan nan nan nan nan nan nan nan nan nan nan nan nan nan nan nan nan nan nan nan nan nan nan nan nan nan nan nan nan nan nan nan nan nan nan nan nan nan nan nan nan nan nan
299 300 301 297 296 298 295 291 290 291 288 288 288 286 285 283 282 276 268 271 277 280 282 282 283 nan nan nan nan nan nan nan nan nan nan nan nan nan nan nan nan nan nan nan nan nan nan nan nan nan nan nan nan nan nan nan nan nan nan nan nan nan nan nan nan nan nan nan nan nan nan nan nan nan nan nan nan nan nan nan nan nan nan nan nan
296 294 296 297 296 288 280 278 283 279 279 277 278 280 280 280 278 278 280 277 272 270 271 279 289 290 285 nan nan nan nan nan nan nan nan nan nan nan nan nan nan nan nan nan nan nan nan nan nan nan nan nan nan nan nan nan nan nan nan nan nan nan nan nan nan nan nan nan nan nan nan nan nan nan nan nan nan nan nan nan nan nan nan nan nan
304 307 311 306 305 306 305 298 284 275 278 279 273 271 271 273 276 276 276 276 277 277 278 278 283 287 287 288 nan nan nan nan nan nan nan nan nan nan nan nan nan nan nan nan nan nan nan nan nan nan nan nan nan nan nan nan nan nan nan nan nan nan nan nan nan nan nan nan nan nan nan nan nan nan nan nan nan nan nan nan nan nan nan nan nan
307 308 310 312 306 302 303 304 300 294 292 292 288 279 270 266 270 274 273 270 272 274 273 276 277 280 282 281 nan nan nan nan nan nan nan nan nan nan nan nan nan nan nan nan nan nan nan nan nan nan nan nan nan nan nan nan nan nan nan nan nan nan nan nan nan nan nan nan nan nan nan nan nan nan nan nan nan nan nan nan nan nan nan nan nan
306 306 310 314 312 303 294 294 297 294 286 283 284 284 278 271 266 266 273 275 276 275 277 276 275 277 nan nan nan nan nan nan nan nan nan nan nan nan nan nan nan nan nan nan nan nan nan nan nan nan nan nan nan nan nan nan nan nan nan nan nan nan nan nan nan nan nan nan nan nan nan nan nan nan nan nan nan nan nan nan nan nan nan nan nan
304 305 306 311 313 308 296 293 296 290 281 276 275 277 279 277 270 267 268 273 276 278 278 277 277 nan nan nan nan nan nan nan nan nan nan nan nan nan nan nan nan nan nan nan nan nan nan nan nan nan nan nan nan nan nan nan nan nan nan nan nan nan nan nan nan nan nan nan nan nan nan nan nan nan nan nan nan nan nan nan nan nan nan nan nan
300 306 309 311 308 305 301 300 298 289 279 276 278 279 280 281 277 272 271 271 273 276 277 278 278 nan nan nan nan nan nan nan nan nan nan nan nan nan nan nan nan nan nan nan nan nan nan nan nan nan nan nan nan nan nan nan nan nan nan nan nan nan nan nan nan nan nan nan nan nan nan nan nan nan nan nan nan nan nan nan nan nan nan nan nan
302 301 305 309 302 302 300 298 290 281 278 278 282 283 284 284 283 278 272 270 270 273 276 278 nan nan nan nan nan nan nan nan nan nan nan nan nan nan nan nan nan nan nan nan nan nan nan nan nan nan nan nan nan nan nan nan nan nan nan nan nan nan nan nan nan nan nan nan nan nan nan nan nan nan nan nan nan nan nan nan nan nan nan nan nan
303 301 301 297 294 294 294 291 287 286 283 281 281 283 287 287 284 278 274 270 268 268 272 nan nan nan nan nan nan nan nan 283 282 281 281 281 281 nan nan nan nan nan nan nan nan nan nan nan nan nan nan nan nan nan nan nan nan nan nan nan nan nan nan nan nan nan nan nan nan nan nan nan nan nan nan nan nan nan nan nan nan nan nan nan nan
302 301 297 294 293 292 290 288 288 286 286 285 286 286 284 283 281 276 272 270 268 268 268 268 nan nan nan nan nan nan nan nan nan nan nan nan nan nan nan nan nan nan nan nan nan nan nan nan nan nan nan nan nan nan nan nan nan nan nan nan nan nan nan nan nan nan nan nan nan nan nan nan nan nan nan nan nan nan nan nan nan nan nan nan nan
299 298 298 297 296 295 292 291 288 285 284 285 285 284 282 280 276 272 270 268 270 271 270 268 267 270 275 nan nan nan nan nan nan nan nan nan nan nan nan nan nan nan nan nan nan nan nan nan nan nan nan nan nan nan nan nan nan nan nan nan nan nan nan nan nan nan nan nan nan nan nan nan nan nan nan nan nan nan nan nan nan nan nan nan nan
296 296 296 296 294 292 291 288 285 284 282 281 278 278 277 275 273 273 273 271 272 273 274 272 272 273 273 275 277 nan nan nan nan nan nan nan nan nan nan nan nan nan nan nan nan nan nan nan nan nan nan nan nan nan nan nan nan nan nan nan nan nan nan nan nan nan nan nan nan nan nan nan nan nan nan nan nan nan nan nan nan nan nan nan nan
292 290 289 288 287 288 287 285 282 280 279 277 275 275 277 277 276 272 271 272 273 273 273 275 277 277 275 276 276 277 276 275 275 nan nan nan nan nan nan nan nan nan nan nan nan nan nan nan nan nan nan nan nan nan nan nan nan nan nan nan nan nan nan nan nan nan nan nan nan nan nan nan nan nan nan nan nan nan nan nan nan nan nan nan nan
286 286 284 283 281 282 282 282 280 279 277 nan nan nan nan nan nan 270 269 269 271 272 272 275 278 279 280 279 277 275 275 276 277 nan nan nan nan nan nan nan nan nan nan nan nan nan nan nan nan nan nan nan nan nan nan nan nan nan nan nan nan nan nan nan nan nan nan nan nan nan nan nan nan nan nan nan nan nan nan nan nan nan nan nan nan
286 285 284 282 280 280 279 280 279 278 275 nan nan nan nan nan nan nan nan 263 261 266 270 277 279 279 279 279 279 278 276 277 277 nan nan nan nan nan nan nan nan nan nan nan nan nan nan nan nan nan nan nan nan nan nan nan nan nan nan nan nan nan nan nan nan nan nan nan nan nan nan nan nan nan nan nan nan nan nan nan nan nan nan nan nan
284 283 282 281 280 280 279 279 277 276 277 277 277 277 276 nan nan nan nan nan nan nan 264 267 270 270 271 272 273 273 274 274 272 nan nan nan nan nan nan nan nan nan nan nan nan nan nan nan nan nan nan nan nan nan nan nan nan nan nan nan nan nan nan nan nan nan nan nan nan nan nan nan nan nan nan nan nan nan nan nan nan nan nan nan nan
282 281 282 281 280 278 277 276 276 276 277 278 278 276 276 274 272 267 nan nan 262 263 nan nan 261 265 269 270 271 271 272 272 273 270 nan nan nan nan nan nan nan nan nan nan nan nan nan nan nan nan nan nan nan nan nan nan nan nan nan nan nan nan nan nan nan nan nan nan nan nan nan nan nan nan nan nan nan nan nan nan nan nan nan nan nan
279 279 280 279 278 278 279 280 279 278 277 277 277 276 274 274 271 268 266 264 262 260 260 261 262 264 nan 266 265 265 266 nan nan 269 nan 269 nan nan nan nan nan nan nan nan nan nan nan nan nan nan nan nan nan nan nan nan nan nan nan nan nan nan nan nan nan nan nan nan nan nan nan nan nan nan nan nan nan nan nan nan nan nan nan nan nan
277 278 278 278 279 280 279 280 281 280 279 277 276 275 273 272 272 270 267 264 263 263 264 265 266 267 nan nan nan nan nan 258 262 nan 262 263 nan 269 269 267 265 nan nan nan nan nan nan nan nan nan nan nan nan nan nan nan nan nan nan nan nan nan nan nan nan nan nan nan nan nan nan nan nan nan nan nan nan nan nan nan nan nan nan nan nan